GFSNGP_700_temp_000.txt.gz
Temp
-0 0 1 1 1 0 -1 -1 -3 0 -1 -0 -1 -1 -2 -2 -3 -3 -3 -3 -4 -4 -4 -5 -6 -6 -6 -7 -7 -6 -6 -6 -7 -7 -9 -10 -11 -11 -12 -12 -13 -13 -12 -13
1 1 0 1 1 1 1 0 -0 -1 -1 -0 -1 -2 -3 -3 -3 -3 -3 -3 -4 -4 -5 -6 -6 -6 -8 -7 -7 -7 -7 -8 -9 -10 -10 -11 -12 -12 -12 -13 -13 -14 -14 -14
0 0 -0 1 2 1 0 -0 -0 -1 -0 -1 -2 -2 -3 -3 -3 -3 -4 -4 -5 -5 -6 -6 -7 -7 -7 -7 -7 -8 -9 -10 -11 -12 -12 -12 -13 -13 -13 -13 -14 -14 -15 -16
-2 -2 -4 1 0 -0 -1 -1 -1 -1 -2 -2 -3 -3 -3 -3 -3 -4 -4 -5 -5 -6 -7 -9 -8 -7 -7 -8 -8 -9 -10 -11 -12 -13 -13 -13 -13 -14 -14 -15 -15 -15 -15 -15
-2 -3 -2 -1 0 -1 -1 -1 -1 -2 -2 -2 -3 -4 -3 -2 -4 -5 -6 -6 -7 -8 -9 -8 -8 -9 -9 -9 -10 -11 -12 -12 -13 -13 -14 -14 -14 -14 -15 -15 -15 -15 -16 -16
-3 -4 -4 -1 -1 -2 -2 -3 -3 -3 -3 -4 -4 -4 -4 -5 -5 -5 -7 -6 -9 -9 -8 -8 -8 -9 -10 -10 -11 -12 -13 -13 -14 -15 -15 -15 -15 -15 -15 -15 -15 -16 -16 -16
-2 -4 -3 -1 -2 -2 -3 -4 -4 -4 -4 -4 -5 -5 -5 -5 -6 -7 -7 -9 -9 -8 -9 -9 -9 -10 -11 -12 -12 -13 -14 -14 -15 -15 -15 -15 -15 -15 -16 -16 -16 -17 -17 -17
-3 -4 -3 -2 -3 -3 -4 -4 -4 -4 -4 -4 -5 -5 -6 -6 -7 -8 -9 -8 -8 -9 -9 -10 -10 -11 -11 -12 -13 -13 -14 -15 -15 -15 -15 -16 -16 -16 -16 -16 -17 -17 -17 -17
-3 -3 -2 -3 -3 -4 -4 -5 -5 -4 -4 -5 -6 -6 -6 -8 -8 -8 -8 -8 -8 -9 -9 -10 -11 -11 -12 -13 -13 -14 -15 -15 -15 -16 -16 -16 -16 -16 -16 -17 -17 -17 -17 -17
-4 -2 -2 -3 -4 -5 -4 -5 -5 -5 -6 -6 -7 -7 -8 -8 -8 -9 -9 -9 -9 -9 -10 -11 -12 -12 -13 -14 -15 -15 -16 -16 -16 -16 -16 -16 -16 -17 -17 -17 -17 -18 -18 -18
-4 -2 -3 -4 -5 -5 -5 -5 -5 -6 -7 -8 -7 -8 -8 -8 -9 -9 -9 -10 -10 -10 -11 -12 -13 -13 -14 -15 -15 -16 -16 -16 -16 -16 -16 -16 -17 -17 -17 -18 -18 -18 -18 -18
-4 -4 -4 -5 -5 -6 -6 -6 -6 -7 -7 -8 -8 -9 -9 -10 -10 -10 -10 -10 -10 -10 -11 -12 -13 -13 -14 -15 -15 -16 -15 -15 -16 -16 -17 -17 -17 -17 -18 -18 -18 -18 -18 -18
-5 -4 -5 -6 -6 -7 -7 -7 -8 -8 -8 -8 -9 -10 -10 -10 -10 -10 -10 -10 -10 -10 -11 -13 -13 -14 -15 -15 -15 -15 -15 -16 -16 -16 -16 -17 -17 -17 -17 -18 -18 -19 -19 -18
-5 -6 -6 -7 -7 -7 -8 -8 -8 -9 -9 -10 -10 -10 -10 -11 -10 -11 -10 -11 -11 -11 -12 -13 -14 -14 -15 -15 -15 -15 -16 -16 -16 -16 -16 -17 -17 -17 -18 -18 -18 -18 -19 -19
-6 -6 -7 -7 -8 -9 -9 -9 -9 -9 -10 -10 -10 -11 -11 -11 -11 -11 -11 -11 -12 -12 -13 -13 -14 -14 -15 -15 -15 -15 -16 -16 -16 -16 -16 -17 -17 -18 -18 -18 -18 -18 -19 -19
-6 -7 -7 -7 -8 -9 -10 -10 -10 -10 -10 -10 -10 -10 -11 -11 -11 -11 -12 -12 -13 -13 -13 -14 -15 -15 -15 -15 -15 -15 -15 -16 -16 -16 -17 -17 -17 -18 -18 -18 -18 -18 -19 -19
-7 -7 -8 -8 -9 -10 -10 -10 -10 -10 -10 -10 -11 -11 -11 -12 -12 -12 -13 -13 -13 -14 -14 -15 -15 -15 -15 -15 -15 -15 -15 -16 -16 -17 -17 -17 -17 -18 -18 -18 -18 -19 -19 -19
-8 -8 -9 -10 -10 -10 -10 -10 -10 -11 -11 -12 -12 -12 -12 -13 -13 -14 -14 -13 -14 -14 -15 -15 -15 -15 -15 -15 -15 -15 -15 -16 -16 -17 -17 -17 -17 -18 -18 -18 -18 -18 -19 -19
-9 -10 -10 -11 -11 -11 -11 -11 -11 -12 -12 -12 -12 -13 -13 -14 -14 -14 -13 -14 -14 -15 -15 -15 -15 -15 -15 -15 -15 -15 -15 -16 -17 -17 -17 -17 -17 -18 -18 -18 -18 -18 -19 -19
-11 -11 -10 -10 -11 -11 -11 -12 -12 -12 -12 -13 -13 -13 -13 -13 -14 -13 -14 -14 -15 -15 -15 -15 -15 -15 -15 -15 -15 -15 -16 -16 -17 -17 -17 -17 -17 -17 -18 -18 -18 -18 -18 -19
-10 -10 -11 -11 -11 -12 -12 -12 -12 -12 -13 -13 -13 -13 -13 -14 -14 -14 -14 -15 -15 -15 -15 -15 -15 -15 -15 -15 -15 -16 -16 -16 -17 -17 -17 -17 -17 -17 -18 -18 -18 -18 -18 -19
-11 -12 -12 -12 -12 -12 -12 -12 -13 -13 -13 -13 -13 -13 -13 -14 -14 -14 -14 -15 -15 -15 -15 -15 -15 -15 -15 -15 -15 -16 -16 -16 -16 -17 -17 -17 -17 -18 -18 -18 -18 -18 -18 -19
-12 -12 -12 -12 -13 -13 -13 -13 -13 -13 -13 -13 -13 -13 -14 -14 -14 -14 -15 -15 -15 -15 -16 -15 -15 -15 -15 -15 -16 -16 -16 -16 -16 -17 -17 -17 -17 -18 -18 -18 -18 -18 -18 -19
-12 -12 -13 -13 -13 -13 -13 -13 -13 -13 -13 -13 -14 -14 -14 -14 -14 -14 -15 -15 -15 -16 -16 -16 -16 -16 -16 -16 -16 -16 -16 -16 -16 -17 -17 -17 -18 -18 -18 -18 -18 -18 -18 -18
-13 -13 -13 -13 -13 -13 -13 -13 -13 -13 -13 -13 -14 -14 -14 -14 -14 -15 -15 -15 -15 -16 -16 -16 -16 -16 -16 -16 -16 -16 -16 -17 -17 -17 -17 -18 -18 -18 -18 -18 -18 -19 -19 -19
-13 -13 -13 -13 -13 -14 -14 -14 -13 -13 -13 -13 -13 -14 -14 -14 -14 -15 -15 -16 -16 -16 -16 -16 -16 -16 -16 -16 -16 -17 -17 -17 -17 -17 -18 -18 -18 -18 -18 -19 -19 -19 -19 -19
-13 -14 -14 -13 -14 -14 -14 -14 -14 -14 -14 -14 -14 -14 -14 -14 -15 -15 -16 -16 -16 -16 -16 -16 -16 -16 -16 -16 -17 -17 -17 -17 -17 -18 -18 -18 -18 -18 -19 -19 -19 -19 -19 -19

GFSNGP_700_temp_003.txt.gz
Temp
1 1 1 1 1 -0 -1 -1 -3 0 -1 -0 -1 -2 -2 -2 -3 -3 -3 -3 -3 -4 -4 -5 -5 -6 -7 -8 -7 -7 -7 -7 -8 -9 -10 -10 -11 -12 -12 -13 -13 -13 -13 -13
1 1 1 1 2 0 1 0 -1 -1 -1 -1 -2 -2 -3 -3 -3 -4 -4 -4 -4 -4 -5 -5 -6 -7 -8 -8 -7 -7 -8 -9 -10 -11 -11 -11 -12 -13 -13 -13 -13 -14 -14 -14
-1 0 0 1 1 1 0 -0 -1 -1 -1 -2 -2 -3 -3 -4 -4 -3 -3 -3 -5 -4 -5 -7 -8 -8 -8 -8 -8 -9 -9 -10 -11 -12 -12 -13 -13 -14 -14 -14 -15 -15 -15 -15
-2 -1 -2 1 0 -1 -1 -0 -1 -1 -2 -2 -2 -3 -4 -3 -3 -4 -4 -5 -5 -6 -7 -7 -7 -7 -8 -9 -9 -10 -10 -11 -12 -13 -13 -14 -15 -15 -15 -15 -15 -15 -15 -16
-3 -4 -2 -0 -0 -1 -1 -2 -2 -2 -2 -3 -3 -3 -3 -4 -4 -5 -6 -6 -6 -8 -7 -7 -8 -8 -9 -9 -10 -11 -11 -13 -13 -14 -14 -14 -15 -15 -15 -15 -16 -16 -16 -16
-4 -4 -3 -1 -1 -2 -2 -2 -3 -3 -3 -4 -4 -5 -5 -5 -6 -6 -6 -8 -8 -8 -8 -8 -8 -9 -9 -10 -11 -12 -13 -13 -14 -15 -15 -15 -15 -16 -16 -16 -16 -16 -17 -17
-4 -4 -3 -2 -2 -2 -3 -4 -4 -4 -5 -5 -5 -5 -6 -6 -6 -7 -9 -8 -8 -8 -8 -8 -9 -9 -10 -10 -11 -12 -14 -14 -15 -15 -15 -16 -16 -16 -16 -16 -16 -17 -17 -17
-4 -3 -3 -2 -3 -3 -4 -4 -4 -5 -5 -5 -5 -6 -6 -7 -7 -8 -8 -8 -9 -9 -9 -9 -9 -10 -10 -11 -12 -13 -14 -15 -15 -16 -16 -16 -16 -16 -16 -17 -17 -17 -17 -18
-4 -3 -2 -3 -4 -4 -4 -4 -5 -5 -5 -6 -6 -6 -7 -7 -8 -8 -9 -9 -9 -9 -9 -10 -10 -11 -11 -12 -13 -14 -15 -15 -16 -16 -16 -16 -17 -16 -17 -17 -17 -18 -18 -18
-4 -3 -3 -4 -4 -4 -4 -4 -5 -5 -5 -6 -6 -7 -7 -8 -9 -9 -9 -9 -9 -10 -10 -10 -11 -12 -12 -13 -14 -14 -15 -16 -16 -16 -16 -17 -17 -17 -17 -17 -18 -18 -18 -18
-4 -3 -4 -4 -4 -4 -5 -5 -6 -6 -6 -7 -8 -8 -8 -9 -10 -10 -10 -10 -10 -10 -11 -11 -12 -12 -14 -14 -14 -15 -15 -15 -16 -16 -16 -16 -16 -17 -17 -18 -18 -18 -18 -18
-5 -5 -5 -5 -5 -5 -6 -6 -6 -8 -8 -8 -9 -9 -10 -10 -10 -10 -11 -11 -11 -11 -11 -12 -12 -13 -14 -14 -14 -15 -15 -16 -16 -16 -16 -16 -17 -17 -18 -18 -18 -19 -19 -19
-5 -5 -5 -4 -5 -6 -6 -7 -8 -9 -9 -9 -10 -10 -10 -10 -11 -11 -11 -12 -11 -12 -12 -13 -13 -14 -14 -14 -15 -15 -16 -16 -16 -16 -16 -16 -17 -17 -17 -18 -19 -19 -19 -19
-5 -5 -5 -6 -6 -7 -7 -8 -9 -9 -10 -11 -11 -10 -10 -11 -11 -12 -12 -12 -12 -13 -13 -13 -14 -14 -14 -15 -15 -15 -16 -16 -16 -16 -16 -17 -17 -17 -18 -18 -18 -18 -19 -19
-6 -6 -6 -7 -7 -8 -9 -9 -9 -10 -10 -10 -10 -10 -11 -11 -11 -12 -12 -13 -13 -14 -14 -14 -14 -15 -15 -15 -15 -15 -15 -15 -16 -16 -17 -17 -17 -17 -18 -18 -18 -18 -19 -19
-6 -7 -7 -8 -8 -9 -10 -10 -10 -10 -10 -10 -10 -11 -11 -12 -12 -13 -13 -13 -13 -13 -14 -14 -15 -15 -16 -15 -15 -15 -15 -16 -16 -17 -17 -17 -17 -17 -17 -18 -18 -18 -18 -19
-7 -8 -8 -8 -9 -9 -10 -10 -11 -10 -10 -11 -11 -12 -12 -12 -13 -13 -13 -14 -14 -14 -14 -15 -15 -16 -15 -15 -15 -15 -16 -16 -16 -17 -17 -17 -17 -17 -17 -18 -18 -18 -18 -19
-8 -8 -9 -9 -9 -10 -11 -11 -11 -11 -12 -12 -12 -12 -12 -13 -13 -13 -14 -13 -14 -14 -15 -15 -15 -15 -15 -15 -15 -16 -16 -16 -16 -17 -17 -17 -17 -17 -17 -18 -18 -18 -18 -19
-9 -9 -10 -11 -11 -11 -11 -11 -12 -12 -12 -12 -12 -12 -13 -13 -13 -14 -14 -14 -14 -14 -15 -15 -15 -15 -15 -15 -15 -16 -16 -16 -17 -17 -17 -17 -17 -17 -17 -18 -18 -18 -18 -18
-10 -10 -11 -11 -11 -11 -12 -12 -12 -12 -12 -13 -13 -12 -13 -13 -13 -14 -14 -14 -14 -15 -15 -15 -15 -15 -15 -15 -15 -16 -16 -16 -16 -17 -17 -17 -17 -17 -18 -18 -18 -18 -18 -18
-11 -11 -11 -11 -11 -11 -12 -12 -13 -13 -13 -13 -13 -13 -13 -13 -14 -14 -14 -14 -14 -15 -15 -15 -15 -15 -15 -15 -15 -16 -16 -16 -16 -16 -17 -17 -17 -18 -18 -18 -18 -18 -18 -18
-11 -11 -12 -12 -12 -12 -12 -12 -13 -13 -13 -13 -13 -13 -13 -13 -14 -14 -14 -14 -15 -15 -16 -16 -16 -16 -15 -15 -16 -16 -16 -16 -16 -16 -17 -17 -18 -18 -18 -18 -18 -18 -18 -18
-12 -12 -12 -12 -12 -12 -12 -13 -13 -13 -13 -13 -13 -13 -13 -14 -14 -14 -14 -14 -15 -16 -16 -16 -16 -16 -16 -16 -16 -16 -16 -16 -16 -17 -17 -17 -18 -18 -18 -18 -18 -18 -19 -19
-12 -12 -12 -13 -13 -13 -13 -13 -13 -13 -14 -14 -14 -14 -14 -14 -14 -14 -14 -14 -15 -16 -16 -16 -16 -16 -16 -16 -16 -16 -16 -16 -17 -17 -17 -17 -18 -18 -18 -18 -19 -19 -19 -19
-13 -12 -13 -13 -13 -13 -13 -14 -14 -14 -14 -13 -14 -14 -14 -14 -14 -14 -14 -14 -15 -16 -16 -16 -16 -16 -16 -16 -16 -16 -16 -17 -17 -17 -17 -18 -18 -18 -18 -18 -19 -19 -19 -19
-13 -13 -13 -13 -13 -14 -14 -14 -14 -14 -14 -13 -14 -14 -14 -14 -14 -14 -14 -15 -15 -16 -16 -16 -16 -16 -16 -16 -16 -16 -17 -17 -17 -17 -17 -18 -18 -18 -19 -19 -19 -19 -19 -20
-13 -14 -14 -13 -14 -14 -14 -14 -13 -13 -14 -14 -14 -14 -14 -14 -14 -14 -15 -15 -16 -16 -16 -16 -16 -16 -16 -16 -16 -16 -17 -17 -17 -17 -18 -18 -18 -18 -19 -19 -19 -19 -19 -20

GFSNGP_700_temp_006.txt.gz
Temp
1 2 1 -1 0 -0 -1 -1 -1 -0 0 -0 -1 -2 -1 -2 -4 -4 -4 -4 -4 -4 -4 -5 -5 -5 -7 -7 -7 -7 -8 -8 -8 -9 -10 -11 -12 -13 -13 -14 -14 -14 -14 -14
1 2 1 0 1 -1 -0 -1 -1 -1 -1 -2 -2 -2 -2 -4 -4 -4 -4 -3 -4 -4 -6 -6 -7 -7 -7 -7 -8 -8 -8 -9 -9 -10 -11 -12 -13 -14 -14 -15 -14 -15 -15 -15
-0 0 0 1 2 0 -0 -1 -1 -1 -1 -1 -2 -3 -4 -4 -4 -3 -4 -4 -5 -5 -6 -7 -7 -7 -7 -8 -8 -8 -9 -10 -10 -11 -13 -13 -14 -15 -15 -15 -15 -15 -15 -15
-1 -1 -0 1 0 -0 -0 -0 -1 -2 -2 -2 -3 -4 -4 -4 -4 -4 -5 -5 -5 -6 -7 -7 -7 -8 -8 -8 -9 -10 -10 -11 -11 -13 -13 -14 -15 -15 -15 -15 -15 -16 -16 -16
-3 -3 -1 -0 -0 -1 -2 -1 -2 -2 -2 -2 -3 -4 -4 -4 -3 -4 -5 -5 -6 -7 -8 -8 -8 -9 -9 -9 -10 -10 -11 -12 -13 -14 -14 -15 -15 -15 -15 -15 -16 -16 -16 -16
-4 -4 -2 -1 -1 -2 -1 -2 -2 -2 -3 -4 -4 -5 -5 -5 -5 -6 -7 -7 -8 -9 -9 -9 -9 -9 -9 -10 -10 -11 -12 -12 -13 -14 -15 -15 -15 -15 -16 -16 -16 -16 -17 -17
-4 -4 -3 -3 -2 -2 -3 -3 -3 -4 -4 -5 -6 -6 -6 -6 -7 -8 -8 -9 -9 -9 -9 -9 -10 -10 -10 -11 -11 -12 -12 -13 -14 -15 -15 -15 -15 -16 -16 -16 -16 -16 -17 -17
-4 -4 -4 -2 -3 -3 -4 -4 -4 -4 -4 -5 -6 -6 -6 -7 -8 -9 -9 -9 -9 -9 -9 -10 -10 -10 -10 -11 -12 -13 -13 -14 -15 -15 -15 -15 -16 -16 -16 -16 -16 -17 -18 -18
-3 -2 -3 -3 -3 -4 -4 -5 -4 -5 -5 -6 -6 -7 -8 -8 -9 -9 -9 -10 -10 -10 -10 -11 -11 -11 -12 -12 -13 -13 -14 -15 -15 -16 -16 -16 -16 -16 -16 -17 -17 -18 -18 -18
-4 -2 -4 -4 -4 -3 -4 -4 -5 -6 -6 -6 -7 -7 -8 -9 -9 -9 -10 -10 -10 -11 -11 -11 -12 -12 -13 -13 -13 -13 -14 -15 -16 -16 -16 -16 -16 -16 -17 -17 -17 -18 -18 -18
-4 -3 -4 -4 -4 -4 -5 -5 -6 -6 -7 -7 -8 -9 -9 -9 -10 -10 -10 -11 -11 -12 -12 -12 -13 -13 -14 -14 -14 -14 -14 -16 -16 -16 -16 -16 -16 -16 -17 -17 -18 -18 -18 -18
-3 -4 -4 -5 -5 -5 -5 -6 -6 -7 -8 -9 -9 -9 -10 -10 -10 -10 -11 -12 -12 -12 -12 -13 -13 -14 -14 -14 -14 -15 -15 -16 -16 -16 -16 -16 -16 -17 -17 -17 -18 -18 -18 -18
-4 -4 -5 -5 -5 -6 -6 -7 -8 -8 -9 -9 -10 -10 -10 -10 -10 -11 -12 -12 -12 -13 -13 -13 -13 -14 -14 -14 -15 -15 -16 -16 -16 -16 -16 -16 -17 -17 -17 -17 -17 -18 -18 -18
-4 -5 -6 -6 -6 -7 -7 -8 -8 -9 -10 -10 -10 -10 -10 -11 -11 -12 -12 -12 -13 -13 -13 -13 -13 -14 -15 -15 -15 -15 -16 -15 -16 -16 -16 -17 -17 -17 -17 -17 -17 -18 -18 -18
-5 -5 -5 -6 -7 -8 -8 -9 -9 -10 -10 -10 -10 -11 -11 -11 -12 -12 -12 -13 -13 -13 -13 -14 -14 -14 -15 -15 -15 -16 -15 -15 -15 -16 -16 -17 -17 -17 -17 -17 -17 -18 -18 -18
-6 -6 -6 -8 -8 -8 -9 -10 -10 -10 -10 -10 -11 -11 -11 -12 -12 -13 -13 -13 -13 -13 -13 -14 -14 -15 -16 -15 -15 -15 -15 -15 -16 -16 -16 -17 -17 -17 -17 -17 -17 -18 -18 -18
-7 -7 -8 -8 -9 -9 -9 -10 -10 -10 -11 -11 -11 -12 -12 -12 -12 -13 -13 -13 -13 -13 -13 -14 -14 -15 -15 -15 -15 -15 -15 -16 -16 -16 -16 -17 -17 -17 -17 -17 -17 -18 -18 -18
-7 -8 -8 -8 -9 -10 -11 -11 -11 -11 -11 -12 -12 -12 -12 -12 -13 -12 -13 -13 -14 -14 -14 -14 -15 -15 -15 -15 -15 -15 -15 -16 -16 -16 -16 -17 -17 -17 -17 -17 -17 -18 -18 -18
-8 -8 -9 -10 -11 -11 -11 -11 -11 -12 -12 -12 -12 -13 -13 -13 -13 -13 -13 -14 -14 -14 -14 -14 -15 -15 -15 -15 -15 -15 -16 -16 -16 -16 -16 -17 -17 -17 -17 -17 -17 -18 -18 -18
-9 -10 -11 -11 -11 -11 -11 -12 -12 -12 -12 -13 -13 -13 -13 -13 -13 -13 -13 -14 -15 -14 -14 -15 -15 -15 -15 -15 -15 -15 -15 -16 -16 -16 -16 -17 -17 -17 -18 -18 -18 -18 -18 -18
-11 -11 -11 -11 -11 -11 -12 -12 -12 -12 -13 -13 -13 -13 -13 -13 -13 -14 -14 -14 -15 -14 -15 -15 -15 -16 -16 -16 -16 -15 -16 -16 -16 -16 -16 -17 -17 -17 -18 -18 -18 -18 -18 -18
-11 -11 -11 -11 -11 -11 -12 -12 -13 -13 -13 -13 -13 -14 -13 -13 -13 -14 -14 -15 -15 -15 -15 -15 -16 -16 -16 -16 -16 -16 -16 -16 -16 -16 -16 -17 -17 -17 -18 -18 -18 -18 -18 -18
-11 -11 -11 -12 -12 -12 -12 -12 -13 -13 -13 -13 -14 -14 -14 -14 -14 -14 -14 -14 -14 -15 -15 -15 -16 -16 -16 -16 -16 -16 -16 -16 -16 -16 -17 -17 -17 -17 -18 -18 -18 -18 -18 -18
-11 -12 -12 -12 -12 -12 -12 -12 -13 -13 -13 -13 -13 -14 -14 -13 -14 -14 -14 -14 -15 -15 -15 -16 -16 -16 -16 -16 -16 -16 -16 -16 -17 -17 -17 -17 -17 -18 -18 -18 -18 -19 -19 -19
-12 -12 -12 -12 -13 -13 -13 -13 -13 -13 -13 -13 -13 -13 -13 -14 -14 -14 -14 -14 -15 -15 -15 -16 -16 -16 -16 -16 -16 -16 -16 -16 -17 -17 -17 -17 -17 -18 -18 -18 -18 -19 -19 -19
-12 -13 -13 -13 -13 -13 -13 -13 -13 -13 -13 -13 -13 -13 -13 -14 -14 -14 -14 -14 -15 -15 -15 -16 -16 -16 -16 -16 -16 -16 -16 -16 -17 -17 -17 -17 -18 -18 -18 -18 -19 -19 -19 -19
-13 -13 -14 -14 -14 -14 -14 -14 -14 -13 -14 -14 -14 -14 -14 -14 -14 -14 -14 -14 -15 -15 -16 -16 -16 -16 -16 -16 -16 -16 -16 -16 -17 -17 -17 -18 -18 -18 -18 -19 -19 -19 -19 -19

GFSNGP_700_temp_009.txt.gz
Temp
2 2 2 2 2 2 2 2 2 2 2 2 1 -0 -1 -2 -2 -3 -3 -4 -3 -4 -4 -4 -5 -6 -7 -9 -8 -9 -8 -8 -8 -9 -9 -10 -11 -12 -13 -13 -14 -14 -15 -15
2 2 1 1 1 2 2 2 2 2 1 1 -1 -1 -2 -2 -3 -3 -4 -4 -3 -4 -5 -5 -8 -8 -9 -9 -10 -10 -9 -11 -11 -10 -11 -12 -12 -13 -14 -14 -15 -15 -15 -16
1 1 0 1 1 2 2 1 0 1 0 -0 -1 -2 -2 -3 -4 -4 -4 -4 -5 -5 -6 -8 -9 -9 -9 -9 -10 -10 -11 -12 -12 -12 -12 -13 -14 -15 -16 -16 -16 -17 -17 -18
-0 -0 0 1 1 1 0 0 0 0 -0 -2 -2 -3 -4 -4 -4 -4 -4 -5 -5 -7 -7 -8 -9 -9 -9 -9 -10 -10 -11 -12 -12 -13 -13 -14 -15 -16 -17 -17 -17 -18 -18 -17
-2 -1 -0 1 -0 -1 -1 -1 -1 -1 -2 -2 -3 -3 -4 -4 -4 -5 -5 -6 -7 -8 -8 -8 -10 -10 -9 -10 -10 -10 -11 -12 -13 -14 -14 -15 -16 -16 -17 -17 -17 -18 -16 -16
-3 -3 -1 0 -1 -2 -1 -1 -2 -2 -2 -2 -3 -5 -5 -4 -4 -5 -6 -8 -9 -9 -10 -10 -10 -11 -11 -11 -11 -11 -11 -12 -13 -14 -14 -15 -16 -17 -17 -17 -17 -16 -16 -17
-3 -3 -2 -1 -2 -2 -2 -2 -2 -3 -3 -4 -5 -6 -6 -5 -6 -9 -9 -9 -9 -10 -10 -11 -10 -11 -12 -11 -11 -12 -12 -13 -13 -14 -14 -15 -17 -17 -17 -17 -17 -16 -17 -17
-3 -3 -3 -2 -3 -3 -3 -4 -4 -4 -4 -5 -5 -6 -6 -7 -9 -9 -9 -10 -10 -11 -11 -10 -12 -12 -13 -12 -12 -12 -12 -13 -14 -14 -15 -16 -17 -17 -17 -18 -16 -17 -17 -17
-2 -2 -1 -3 -3 -3 -4 -3 -4 -5 -5 -5 -7 -7 -9 -9 -10 -10 -10 -10 -11 -11 -12 -13 -13 -13 -13 -13 -13 -13 -14 -14 -14 -14 -15 -17 -17 -17 -18 -17 -16 -17 -17 -18
-3 -2 -3 -3 -3 -3 -3 -5 -5 -5 -6 -7 -9 -9 -10 -10 -10 -10 -11 -11 -12 -12 -13 -13 -13 -14 -14 -13 -13 -14 -14 -14 -14 -15 -16 -16 -18 -18 -17 -16 -17 -17 -17 -18
-3 -3 -3 -4 -4 -4 -4 -5 -5 -5 -7 -7 -8 -9 -10 -10 -11 -11 -12 -12 -13 -13 -13 -13 -14 -14 -14 -13 -13 -14 -14 -15 -15 -15 -16 -16 -16 -16 -16 -16 -17 -17 -18 -18
-3 -3 -4 -4 -4 -5 -5 -5 -6 -7 -7 -8 -9 -10 -11 -11 -12 -12 -12 -13 -13 -13 -13 -14 -14 -13 -13 -13 -14 -14 -15 -15 -15 -15 -15 -15 -16 -16 -16 -16 -17 -17 -17 -17
-4 -3 -4 -4 -5 -5 -5 -6 -7 -7 -8 -9 -10 -11 -11 -12 -12 -12 -13 -13 -13 -13 -12 -13 -13 -13 -13 -14 -14 -15 -16 -15 -15 -15 -15 -16 -16 -16 -16 -17 -17 -17 -17 -17
-3 -4 -4 -4 -5 -6 -6 -7 -8 -8 -9 -11 -11 -10 -11 -11 -11 -12 -12 -12 -12 -13 -13 -13 -13 -13 -13 -14 -15 -15 -15 -15 -15 -15 -15 -16 -16 -16 -17 -17 -17 -17 -17 -17
-4 -4 -5 -6 -6 -7 -7 -8 -8 -9 -10 -10 -10 -11 -11 -11 -12 -12 -12 -12 -12 -13 -13 -13 -13 -14 -14 -14 -15 -15 -15 -15 -15 -15 -16 -16 -16 -16 -17 -17 -17 -17 -17 -17
-5 -5 -6 -7 -7 -7 -8 -9 -9 -10 -10 -10 -10 -11 -11 -12 -12 -12 -13 -13 -13 -13 -13 -13 -13 -14 -14 -15 -15 -15 -15 -15 -15 -16 -16 -16 -16 -16 -17 -17 -17 -17 -17 -17
-6 -6 -7 -7 -7 -8 -9 -9 -10 -10 -10 -10 -11 -11 -12 -12 -12 -13 -13 -13 -13 -13 -13 -14 -14 -14 -14 -15 -15 -15 -15 -15 -15 -16 -16 -16 -16 -17 -17 -17 -17 -17 -17 -17
-6 -7 -7 -8 -8 -9 -9 -10 -10 -10 -11 -11 -11 -12 -12 -12 -13 -13 -13 -13 -13 -14 -14 -14 -14 -14 -15 -15 -15 -15 -15 -15 -15 -16 -16 -16 -16 -17 -17 -17 -17 -17 -17 -17
-7 -7 -8 -9 -9 -10 -10 -10 -10 -11 -11 -12 -12 -12 -13 -13 -13 -13 -13 -13 -14 -14 -14 -14 -14 -15 -15 -15 -15 -15 -15 -15 -15 -16 -16 -16 -16 -17 -17 -17 -18 -18 -18 -18
-8 -9 -9 -10 -10 -10 -10 -11 -11 -11 -12 -12 -12 -12 -13 -13 -13 -13 -13 -13 -14 -14 -15 -15 -15 -15 -15 -15 -15 -15 -15 -15 -16 -16 -16 -16 -16 -17 -17 -17 -18 -18 -18 -18
-9 -10 -10 -10 -10 -10 -11 -11 -11 -12 -12 -13 -13 -13 -13 -13 -13 -13 -13 -13 -14 -14 -14 -15 -15 -15 -15 -15 -15 -16 -16 -16 -16 -16 -16 -16 -16 -17 -17 -17 -18 -18 -18 -18
-10 -10 -10 -10 -11 -11 -11 -11 -12 -12 -12 -13 -13 -13 -13 -13 -13 -13 -13 -14 -14 -14 -14 -14 -15 -16 -16 -16 -16 -16 -16 -16 -16 -16 -16 -16 -17 -17 -17 -17 -18 -18 -18 -18
-10 -10 -11 -11 -11 -11 -11 -12 -12 -13 -13 -13 -13 -13 -13 -13 -13 -13 -13 -14 -14 -14 -14 -15 -15 -16 -16 -16 -16 -16 -16 -16 -16 -16 -17 -17 -17 -17 -17 -18 -18 -18 -18 -18
-11 -11 -11 -11 -12 -12 -12 -13 -13 -13 -13 -13 -13 -13 -13 -13 -13 -13 -14 -14 -14 -14 -14 -15 -15 -16 -16 -16 -16 -16 -16 -16 -16 -16 -17 -17 -17 -17 -17 -18 -18 -18 -18 -18
-11 -11 -12 -12 -12 -13 -13 -13 -14 -14 -13 -13 -13 -13 -13 -14 -14 -13 -14 -14 -14 -14 -14 -15 -15 -16 -16 -16 -16 -16 -16 -16 -16 -16 -17 -17 -17 -17 -18 -18 -18 -18 -18 -19
-12 -12 -12 -13 -13 -14 -14 -14 -14 -14 -14 -13 -13 -14 -14 -14 -14 -14 -14 -14 -14 -15 -15 -15 -15 -16 -16 -16 -16 -16 -16 -16 -16 -16 -17 -17 -17 -18 -18 -18 -18 -18 -19 -19
-13 -13 -13 -13 -14 -14 -14 -14 -14 -14 -14 -14 -14 -14 -14 -14 -14 -14 -14 -15 -15 -15 -15 -15 -15 -16 -16 -16 -16 -16 -16 -16 -16 -17 -17 -17 -17 -18 -18 -18 -18 -19 -19 -19